QPF
0.00 0.00 0.00 0.00 0.00 0.00 0.00 0.00 0.00 0.00 0.00 0.00 0.00 0.00 0.00 0.00 0.00 0.00 0.00 0.00 0.00 0.00 0.00 0.00 0.00 0.00 0.00 0.00 0.00 0.00 0.00 0.00 0.00 0.00 0.00 0.00 0.00 0.00 0.00 0.00 0.00 0.00 0.00
0.00 0.00 0.00 0.00 0.00 0.00 0.00 0.00 0.00 0.00 0.00 0.00 0.00 0.00 0.00 0.00 0.00 0.00 0.00 0.00 0.00 0.00 0.00 0.00 0.00 0.00 0.00 0.00 0.00 0.00 0.00 0.00 0.00 0.00 0.00 0.00 0.00 0.01 0.01 0.00 0.00 0.00 0.00
0.00 0.00 0.00 0.00 0.00 0.00 0.00 0.00 0.00 0.00 0.00 0.00 0.00 0.00 0.00 0.00 0.00 0.00 0.00 0.00 0.00 0.00 0.00 0.00 0.00 0.00 0.00 0.00 0.00 0.00 0.00 0.00 0.00 0.00 0.00 0.00 0.00 0.01 0.01 0.00 0.00 0.00 0.00
0.00 0.00 0.00 0.00 0.00 0.00 0.00 0.00 0.00 0.00 0.00 0.00 0.00 0.00 0.00 0.00 0.00 0.00 0.00 0.00 0.00 0.00 0.00 0.00 0.00 0.00 0.00 0.00 0.00 0.00 0.00 0.00 0.00 0.00 0.01 0.02 0.00 0.01 0.01 0.00 0.00 0.00 0.00
0.00 0.00 0.00 0.00 0.00 0.00 0.00 0.00 0.00 0.00 0.00 0.00 0.00 0.00 0.00 0.00 0.00 0.00 0.00 0.00 0.00 0.00 0.00 0.00 0.00 0.00 0.00 0.00 0.00 0.00 0.00 0.00 0.00 0.00 0.01 0.02 0.01 0.01 0.01 0.01 0.00 0.00 0.00
0.00 0.00 0.00 0.00 0.00 0.00 0.00 0.00 0.00 0.00 0.00 0.00 0.00 0.00 0.00 0.00 0.00 0.00 0.00 0.00 0.00 0.00 0.00 0.00 0.00 0.00 0.00 0.00 0.00 0.00 0.00 0.00 0.00 0.00 0.00 0.00 0.01 0.02 0.02 0.01 0.00 0.00 0.00
0.00 0.00 0.00 0.00 0.00 0.00 0.00 0.00 0.00 0.00 0.00 0.00 0.00 0.00 0.00 0.00 0.00 0.00 0.00 0.00 0.00 0.00 0.00 0.00 0.00 0.00 0.00 0.00 0.00 0.00 0.00 0.00 0.00 0.00 0.00 0.00 0.00 0.01 0.02 0.02 0.01 0.00 0.00
0.00 0.00 0.00 0.00 0.00 0.00 0.00 0.00 0.00 0.00 0.00 0.00 0.00 0.00 0.00 0.00 0.00 0.00 0.00 0.00 0.00 0.00 0.00 0.00 0.00 0.00 0.00 0.00 0.00 0.00 0.00 0.00 0.00 0.00 0.00 0.00 0.00 0.01 0.03 0.02 0.01 0.01 0.00
0.00 0.00 0.00 0.00 0.00 0.00 0.00 0.00 0.00 0.00 0.00 0.00 0.00 0.00 0.00 0.00 0.00 0.00 0.00 0.00 0.00 0.00 0.00 0.00 0.00 0.00 0.00 0.00 0.00 0.00 0.00 0.00 0.00 0.00 0.00 0.00 0.01 0.02 0.05 0.03 0.02 0.01 0.01
0.00 0.00 0.00 0.00 0.00 0.00 0.00 0.00 0.00 0.00 0.00 0.00 0.00 0.00 0.00 0.00 0.00 0.00 0.00 0.00 0.00 0.01 0.00 0.00 0.00 0.00 0.00 0.00 0.00 0.00 0.00 0.00 0.00 0.00 0.00 0.00 0.01 0.04 0.07 0.05 0.02 0.01 0.01
0.00 0.00 0.00 0.00 0.00 0.00 0.00 0.00 0.00 0.00 0.00 0.00 0.00 0.00 0.00 0.00 0.00 0.00 0.01 0.02 0.03 0.03 0.03 0.02 0.01 0.01 0.01 0.01 0.01 0.01 0.01 0.00 0.00 0.00 0.01 0.01 0.02 0.06 0.08 0.05 0.03 0.02 0.01
0.00 0.00 0.00 0.00 0.00 0.00 0.00 0.00 0.00 0.00 0.00 0.00 0.00 0.00 0.00 0.00 0.00 0.00 0.01 0.04 0.06 0.08 0.08 0.07 0.06 0.04 0.03 0.02 0.02 0.04 0.02 0.02 0.02 0.01 0.01 0.02 0.05 0.08 0.08 0.06 0.04 0.03 0.01
0.00 0.00 0.00 0.00 0.00 0.00 0.00 0.00 0.00 0.00 0.00 0.00 0.00 0.00 0.00 0.01 0.01 0.01 0.02 0.03 0.06 0.09 0.08 0.10 0.09 0.06 0.05 0.05 0.04 0.04 0.05 0.05 0.04 0.05 0.05 0.04 0.09 0.13 0.11 0.08 0.06 0.04 0.03
0.00 0.00 0.00 0.00 0.00 0.00 0.00 0.00 0.00 0.00 0.01 0.01 0.01 0.02 0.02 0.03 0.04 0.04 0.03 0.05 0.05 0.06 0.10 0.11 0.10 0.12 0.09 0.08 0.10 0.11 0.11 0.10 0.09 0.09 0.08 0.06 0.10 0.15 0.12 0.09 0.08 0.05 0.03
0.00 0.00 0.00 0.00 0.00 0.00 0.00 0.00 0.00 0.01 0.02 0.02 0.03 0.05 0.07 0.08 0.09 0.08 0.06 0.06 0.08 0.09 0.11 0.12 0.13 0.15 0.15 0.17 0.18 0.18 0.16 0.16 0.11 0.10 0.08 0.09 0.10 0.10 0.11 0.10 0.09 0.07 0.06
0.04 0.01 0.01 0.01 0.01 0.01 0.00 0.01 0.01 0.01 0.02 0.04 0.06 0.07 0.10 0.14 0.12 0.10 0.09 0.07 0.07 0.09 0.09 0.10 0.12 0.15 0.16 0.18 0.17 0.16 0.17 0.17 0.15 0.13 0.12 0.12 0.13 0.12 0.13 0.14 0.12 0.10 0.08
0.07 0.05 0.04 0.04 0.04 0.03 0.02 0.02 0.02 0.03 0.04 0.05 0.06 0.08 0.10 0.12 0.11 0.10 0.09 0.09 0.08 0.07 0.07 0.09 0.10 0.12 0.13 0.14 0.14 0.15 0.14 0.13 0.13 0.11 0.11 0.12 0.12 0.13 0.15 0.17 0.17 0.14 0.11
0.15 0.16 0.15 0.17 0.15 0.11 0.08 0.06 0.06 0.07 0.07 0.07 0.07 0.09 0.09 0.09 0.10 0.09 0.08 0.09 0.09 0.07 0.07 0.08 0.07 0.08 0.10 0.10 0.09 0.09 0.09 0.08 0.07 0.09 0.11 0.10 0.13 0.12 0.13 0.17 0.19 0.18 0.19
0.26 0.32 0.32 0.32 0.32 0.29 0.21 0.16 0.13 0.10 0.11 0.09 0.09 0.09 0.07 0.05 0.05 0.06 0.07 0.05 0.05 0.05 0.04 0.05 0.06 0.06 0.06 0.06 0.06 0.05 0.05 0.04 0.04 0.06 0.07 0.06 0.08 0.11 0.10 0.10 0.15 0.17 0.19
0.50 0.64 0.65 0.60 0.55 0.42 0.30 0.27 0.21 0.14 0.12 0.09 0.10 0.08 0.04 0.04 0.03 0.04 0.04 0.02 0.02 0.02 0.02 0.03 0.03 0.04 0.04 0.07 0.06 0.04 0.04 0.04 0.05 0.05 0.05 0.05 0.05 0.06 0.08 0.10 0.12 0.15 0.18
0.72 0.85 0.90 0.87 0.77 0.54 0.39 0.36 0.30 0.21 0.18 0.13 0.08 0.05 0.03 0.02 0.01 0.01 0.01 0.01 0.01 0.01 0.01 0.02 0.01 0.01 0.02 0.04 0.04 0.03 0.03 0.03 0.02 0.02 0.03 0.03 0.04 0.04 0.07 0.12 0.12 0.12 0.15
0.60 0.79 0.97 0.81 0.61 0.47 0.37 0.32 0.28 0.19 0.12 0.06 0.04 0.04 0.03 0.01 0.00 0.00 0.00 0.00 0.00 0.00 0.00 0.01 0.01 0.01 0.01 0.03 0.03 0.03 0.02 0.01 0.01 0.01 0.02 0.02 0.03 0.04 0.05 0.09 0.12 0.12 0.16
0.45 0.66 0.71 0.52 0.42 0.34 0.27 0.20 0.13 0.10 0.09 0.07 0.05 0.02 0.01 0.01 0.00 0.00 0.00 0.00 0.00 0.00 0.00 0.00 0.00 0.00 0.01 0.02 0.03 0.03 0.02 0.01 0.01 0.01 0.02 0.02 0.04 0.04 0.05 0.06 0.08 0.12 0.18
0.22 0.23 0.26 0.25 0.20 0.17 0.14 0.12 0.10 0.09 0.08 0.07 0.05 0.03 0.03 0.02 0.03 0.02 0.01 0.00 0.00 0.00 0.00 0.00 0.00 0.00 0.00 0.01 0.01 0.02 0.03 0.02 0.02 0.01 0.01 0.01 0.02 0.04 0.06 0.08 0.10 0.14 0.16
0.11 0.15 0.16 0.17 0.18 0.16 0.14 0.14 0.13 0.10 0.08 0.07 0.06 0.06 0.08 0.10 0.09 0.04 0.02 0.01 0.01 0.01 0.00 0.00 0.00 0.00 0.00 0.00 0.00 0.01 0.02 0.03 0.03 0.03 0.01 0.01 0.02 0.02 0.05 0.07 0.08 0.13 0.19
0.10 0.16 0.18 0.17 0.15 0.15 0.13 0.12 0.11 0.08 0.07 0.07 0.07 0.07 0.07 0.07 0.06 0.05 0.03 0.02 0.02 0.02 0.01 0.00 0.00 0.00 0.00 0.00 0.00 0.01 0.01 0.02 0.02 0.02 0.02 0.02 0.02 0.02 0.03 0.05 0.07 0.09 0.11
MSLP
1011.09 1010.68 1010.47 1010.51 1010.79 1011.24 1011.75 1012.24 1012.60 1012.83 1012.92 1012.92 1012.91 1012.95 1013.07 1013.26 1013.51 1013.78 1014.00 1014.17 1014.26 1014.29 1014.31 1014.34 1014.41 1014.54 1014.72 1014.92 1015.12 1015.29 1015.41 1015.49 1015.52 1015.54 1015.56 1015.59 1015.65 1015.72 1015.82 1015.93 1016.05 1016.18 1016.31
1010.39 1010.12 1010.04 1010.20 1010.57 1011.08 1011.61 1012.09 1012.45 1012.67 1012.78 1012.82 1012.88 1012.99 1013.18 1013.43 1013.73 1014.00 1014.22 1014.36 1014.42 1014.42 1014.41 1014.42 1014.47 1014.58 1014.74 1014.92 1015.10 1015.25 1015.37 1015.45 1015.52 1015.57 1015.63 1015.70 1015.78 1015.88 1015.97 1016.07 1016.17 1016.27 1016.38
1009.69 1009.55 1009.60 1009.88 1010.33 1010.88 1011.44 1011.91 1012.27 1012.49 1012.62 1012.71 1012.83 1013.01 1013.26 1013.57 1013.89 1014.17 1014.37 1014.49 1014.52 1014.51 1014.48 1014.47 1014.51 1014.60 1014.73 1014.87 1015.02 1015.14 1015.25 1015.35 1015.44 1015.54 1015.65 1015.78 1015.90 1016.02 1016.12 1016.20 1016.28 1016.35 1016.45
1009.12 1009.09 1009.26 1009.62 1010.14 1010.73 1011.29 1011.76 1012.10 1012.33 1012.48 1012.61 1012.77 1013.00 1013.30 1013.63 1013.95 1014.23 1014.42 1014.52 1014.54 1014.52 1014.49 1014.49 1014.52 1014.59 1014.69 1014.80 1014.90 1015.00 1015.09 1015.19 1015.31 1015.46 1015.62 1015.80 1015.96 1016.10 1016.21 1016.28 1016.34 1016.40 1016.48
1008.76 1008.83 1009.08 1009.51 1010.07 1010.66 1011.21 1011.65 1011.97 1012.19 1012.34 1012.49 1012.69 1012.94 1013.26 1013.59 1013.91 1014.16 1014.33 1014.42 1014.45 1014.45 1014.44 1014.46 1014.51 1014.58 1014.66 1014.74 1014.80 1014.86 1014.93 1015.02 1015.16 1015.33 1015.54 1015.75 1015.94 1016.10 1016.21 1016.27 1016.32 1016.37 1016.45
1008.64 1008.77 1009.09 1009.57 1010.13 1010.71 1011.22 1011.62 1011.89 1012.08 1012.22 1012.37 1012.58 1012.84 1013.15 1013.46 1013.75 1013.98 1014.13 1014.21 1014.25 1014.28 1014.32 1014.39 1014.47 1014.56 1014.64 1014.70 1014.73 1014.75 1014.79 1014.86 1014.99 1015.17 1015.39 1015.62 1015.82 1015.98 1016.08 1016.13 1016.17 1016.22 1016.31
1008.69 1008.88 1009.24 1009.73 1010.29 1010.83 1011.28 1011.62 1011.84 1011.99 1012.11 1012.25 1012.45 1012.70 1012.99 1013.27 1013.52 1013.71 1013.83 1013.91 1013.97 1014.04 1014.13 1014.26 1014.40 1014.53 1014.62 1014.68 1014.69 1014.68 1014.68 1014.73 1014.83 1014.99 1015.19 1015.41 1015.59 1015.73 1015.81 1015.86 1015.89 1015.94 1016.06
1008.79 1009.03 1009.42 1009.93 1010.47 1010.96 1011.35 1011.62 1011.79 1011.90 1012.00 1012.13 1012.32 1012.56 1012.82 1013.06 1013.26 1013.40 1013.49 1013.55 1013.62 1013.72 1013.88 1014.06 1014.26 1014.45 1014.58 1014.64 1014.65 1014.62 1014.60 1014.60 1014.67 1014.79 1014.95 1015.13 1015.28 1015.38 1015.44 1015.46 1015.49 1015.56 1015.70
1008.82 1009.11 1009.55 1010.06 1010.58 1011.02 1011.35 1011.57 1011.69 1011.78 1011.87 1012.01 1012.20 1012.43 1012.67 1012.87 1013.02 1013.11 1013.15 1013.18 1013.25 1013.37 1013.56 1013.79 1014.05 1014.29 1014.46 1014.56 1014.58 1014.55 1014.50 1014.47 1014.49 1014.57 1014.68 1014.80 1014.90 1014.97 1014.99 1015.00 1015.03 1015.10 1015.26
1008.67 1009.04 1009.52 1010.05 1010.55 1010.96 1011.25 1011.42 1011.52 1011.60 1011.71 1011.87 1012.09 1012.33 1012.55 1012.73 1012.83 1012.86 1012.85 1012.83 1012.87 1012.98 1013.18 1013.45 1013.75 1014.03 1014.25 1014.38 1014.42 1014.40 1014.35 1014.31 1014.29 1014.32 1014.37 1014.44 1014.50 1014.52 1014.53 1014.53 1014.56 1014.64 1014.82
1008.34 1008.79 1009.34 1009.89 1010.38 1010.76 1011.01 1011.16 1011.25 1011.35 1011.49 1011.70 1011.95 1012.22 1012.46 1012.62 1012.68 1012.66 1012.59 1012.52 1012.51 1012.59 1012.77 1013.04 1013.36 1013.66 1013.92 1014.09 1014.17 1014.17 1014.13 1014.08 1014.04 1014.03 1014.04 1014.06 1014.08 1014.09 1014.08 1014.08 1014.12 1014.22 1014.41
1007.90 1008.44 1009.04 1009.61 1010.08 1010.42 1010.65 1010.78 1010.88 1011.00 1011.20 1011.46 1011.77 1012.08 1012.34 1012.51 1012.56 1012.50 1012.38 1012.25 1012.18 1012.21 1012.36 1012.60 1012.90 1013.22 1013.49 1013.69 1013.81 1013.84 1013.82 1013.77 1013.72 1013.69 1013.67 1013.67 1013.67 1013.67 1013.67 1013.69 1013.75 1013.87 1014.06
1007.48 1008.10 1008.73 1009.28 1009.72 1010.02 1010.20 1010.31 1010.41 1010.57 1010.81 1011.13 1011.50 1011.87 1012.17 1012.35 1012.40 1012.33 1012.18 1012.02 1011.90 1011.87 1011.96 1012.16 1012.44 1012.74 1013.01 1013.23 1013.37 1013.43 1013.43 1013.39 1013.34 1013.30 1013.27 1013.25 1013.25 1013.25 1013.28 1013.33 1013.42 1013.57 1013.77
1007.24 1007.89 1008.51 1009.02 1009.38 1009.61 1009.73 1009.80 1009.89 1010.06 1010.33 1010.70 1011.12 1011.54 1011.88 1012.10 1012.18 1012.13 1011.98 1011.80 1011.65 1011.59 1011.63 1011.78 1012.01 1012.28 1012.54 1012.75 1012.90 1012.98 1012.99 1012.97 1012.92 1012.86 1012.82 1012.80 1012.80 1012.83 1012.88 1012.98 1013.12 1013.30 1013.52
1007.28 1007.92 1008.47 1008.88 1009.14 1009.26 1009.29 1009.30 1009.36 1009.51 1009.79 1010.18 1010.64 1011.09 1011.47 1011.74 1011.86 1011.85 1011.74 1011.59 1011.45 1011.38 1011.39 1011.50 1011.69 1011.91 1012.14 1012.33 1012.47 1012.54 1012.55 1012.52 1012.47 1012.40 1012.35 1012.31 1012.32 1012.37 1012.46 1012.60 1012.79 1013.00 1013.24
1007.67 1008.23 1008.66 1008.93 1009.04 1009.03 1008.95 1008.88 1008.88 1009.00 1009.25 1009.63 1010.08 1010.55 1010.96 1011.26 1011.45 1011.50 1011.47 1011.38 1011.29 1011.24 1011.26 1011.34 1011.49 1011.67 1011.85 1012.00 1012.11 1012.17 1012.16 1012.11 1012.03 1011.94 1011.86 1011.81 1011.81 1011.86 1011.98 1012.16 1012.39 1012.65 1012.92
1008.35 1008.77 1009.03 1009.13 1009.08 1008.93 1008.74 1008.58 1008.51 1008.58 1008.79 1009.13 1009.55 1009.99 1010.40 1010.74 1010.97 1011.11 1011.17 1011.17 1011.17 1011.17 1011.22 1011.30 1011.42 1011.56 1011.69 1011.80 1011.87 1011.89 1011.86 1011.78 1011.66 1011.54 1011.42 1011.33 1011.30 1011.35 1011.47 1011.67 1011.93 1012.23 1012.52
1009.18 1009.43 1009.52 1009.44 1009.23 1008.96 1008.67 1008.44 1008.32 1008.33 1008.48 1008.75 1009.11 1009.50 1009.89 1010.23 1010.51 1010.72 1010.87 1010.98 1011.07 1011.15 1011.24 1011.34 1011.45 1011.55 1011.64 1011.71 1011.73 1011.72 1011.65 1011.54 1011.39 1011.22 1011.05 1010.92 1010.84 1010.85 1010.96 1011.15 1011.42 1011.74 1012.05
1010.02 1010.09 1010.00 1009.77 1009.45 1009.09 1008.75 1008.48 1008.33 1008.30 1008.39 1008.59 1008.87 1009.18 1009.51 1009.83 1010.12 1010.38 1010.62 1010.82 1011.00 1011.15 1011.29 1011.41 1011.51 1011.59 1011.65 1011.68 1011.67 1011.63 1011.54 1011.41 1011.23 1011.02 1010.81 1010.62 1010.48 1010.43 1010.49 1010.65 1010.90 1011.21 1011.54
1010.73 1010.64 1010.41 1010.07 1009.68 1009.29 1008.96 1008.71 1008.56 1008.51 1008.57 1008.69 1008.88 1009.10 1009.34 1009.60 1009.87 1010.14 1010.42 1010.68 1010.92 1011.14 1011.32 1011.45 1011.55 1011.61 1011.64 1011.65 1011.64 1011.59 1011.50 1011.37 1011.18 1010.95 1010.70 1010.45 1010.25 1010.13 1010.11 1010.21 1010.42 1010.70 1011.01
1011.21 1011.01 1010.69 1010.30 1009.91 1009.56 1009.28 1009.09 1008.99 1008.96 1009.00 1009.06 1009.16 1009.27 1009.41 1009.58 1009.78 1010.03 1010.30 1010.58 1010.84 1011.08 1011.27 1011.41 1011.50 1011.54 1011.57 1011.57 1011.56 1011.54 1011.48 1011.38 1011.21 1010.99 1010.72 1010.43 1010.16 1009.96 1009.86 1009.87 1010.00 1010.22 1010.50
1011.46 1011.19 1010.85 1010.47 1010.13 1009.87 1009.69 1009.60 1009.58 1009.60 1009.63 1009.65 1009.66 1009.67 1009.69 1009.75 1009.86 1010.03 1010.25 1010.50 1010.75 1010.97 1011.14 1011.25 1011.32 1011.35 1011.37 1011.39 1011.41 1011.43 1011.43 1011.38 1011.27 1011.08 1010.81 1010.51 1010.19 1009.91 1009.71 1009.63 1009.66 1009.81 1010.03
1011.53 1011.25 1010.93 1010.61 1010.37 1010.21 1010.16 1010.19 1010.26 1010.34 1010.39 1010.38 1010.32 1010.23 1010.14 1010.07 1010.07 1010.14 1010.27 1010.45 1010.63 1010.79 1010.91 1010.99 1011.02 1011.03 1011.04 1011.08 1011.14 1011.22 1011.29 1011.32 1011.29 1011.15 1010.93 1010.62 1010.28 1009.94 1009.66 1009.47 1009.40 1009.46 1009.60
1011.52 1011.27 1011.01 1010.77 1010.63 1010.59 1010.65 1010.79 1010.95 1011.08 1011.15 1011.13 1011.01 1010.84 1010.65 1010.47 1010.35 1010.31 1010.34 1010.41 1010.50 1010.58 1010.63 1010.64 1010.62 1010.60 1010.60 1010.65 1010.75 1010.89 1011.04 1011.16 1011.21 1011.15 1010.98 1010.70 1010.35 1009.98 1009.63 1009.37 1009.21 1009.17 1009.24
1011.53 1011.34 1011.14 1010.99 1010.93 1010.98 1011.13 1011.34 1011.57 1011.74 1011.82 1011.79 1011.64 1011.41 1011.14 1010.87 1010.66 1010.51 1010.42 1010.39 1010.38 1010.37 1010.33 1010.27 1010.19 1010.12 1010.11 1010.16 1010.28 1010.46 1010.67 1010.86 1010.99 1011.01 1010.91 1010.68 1010.35 1009.97 1009.60 1009.27 1009.05 1008.94 1008.94
1011.64 1011.51 1011.37 1011.28 1011.27 1011.37 1011.56 1011.81 1012.05 1012.24 1012.33 1012.29 1012.12 1011.86 1011.54 1011.22 1010.93 1010.70 1010.52 1010.40 1010.30 1010.19 1010.06 1009.92 1009.78 1009.66 1009.61 1009.64 1009.76 1009.95 1010.20 1010.44 1010.63 1010.72 1010.68 1010.50 1010.22 1009.87 1009.50 1009.17 1008.91 1008.76 1008.73
Thickness
5831 5831 5827 5824 5820 5817 5814 5811 5809 5806 5803 5801 5798 5796 5793 5791 5788 5786 5783 5781 5778 5775 5773 5771 5768 5767 5765 5763 5762 5761 5759 5757 5756 5755 5753 5752 5750 5749 5748 5747 5746 5745 5744
5840 5834 5829 5826 5822 5818 5815 5812 5809 5806 5803 5800 5798 5795 5793 5790 5788 5785 5782 5780 5778 5776 5773 5771 5769 5767 5765 5763 5762 5760 5759 5757 5756 5754 5753 5751 5750 5749 5749 5748 5746 5744 5743
5841 5835 5831 5827 5823 5819 5815 5812 5809 5806 5803 5800 5797 5795 5792 5789 5787 5784 5782 5779 5777 5775 5773 5771 5769 5767 5765 5763 5762 5760 5759 5757 5756 5754 5752 5751 5749 5749 5748 5747 5745 5744 5743
5842 5836 5832 5828 5823 5819 5815 5812 5809 5806 5802 5799 5797 5794 5791 5789 5786 5784 5781 5779 5776 5774 5772 5770 5768 5767 5765 5763 5762 5760 5759 5757 5756 5754 5753 5751 5750 5749 5748 5747 5746 5744 5743
5841 5836 5832 5828 5823 5819 5815 5812 5808 5805 5802 5799 5796 5793 5790 5788 5785 5783 5780 5778 5776 5773 5771 5769 5768 5766 5764 5763 5762 5761 5759 5758 5756 5755 5753 5752 5751 5749 5748 5748 5746 5745 5743
5839 5835 5832 5828 5823 5819 5815 5811 5808 5805 5801 5798 5795 5792 5789 5786 5784 5781 5779 5777 5775 5773 5771 5769 5767 5765 5763 5762 5761 5760 5759 5758 5757 5755 5754 5753 5752 5751 5750 5749 5748 5746 5744
5838 5834 5831 5827 5823 5819 5815 5811 5808 5804 5800 5797 5794 5790 5787 5785 5782 5780 5778 5776 5773 5771 5769 5768 5766 5764 5763 5761 5760 5760 5759 5758 5757 5756 5754 5754 5753 5752 5751 5750 5749 5747 5745
5839 5834 5830 5826 5822 5818 5814 5810 5806 5803 5799 5795 5792 5789 5786 5783 5781 5778 5776 5774 5772 5770 5768 5766 5765 5763 5762 5760 5759 5758 5758 5757 5757 5757 5756 5754 5754 5753 5752 5751 5750 5749 5747
5837 5832 5828 5824 5820 5816 5812 5808 5804 5801 5797 5793 5790 5787 5784 5781 5778 5776 5774 5772 5770 5768 5767 5765 5764 5762 5761 5759 5758 5757 5756 5756 5756 5756 5756 5755 5755 5753 5752 5752 5751 5750 5748
5834 5830 5827 5823 5818 5814 5810 5806 5802 5798 5794 5791 5787 5784 5781 5778 5775 5773 5771 5769 5768 5766 5765 5763 5762 5760 5759 5758 5757 5756 5755 5754 5755 5754 5754 5754 5754 5753 5753 5752 5751 5750 5749
5829 5826 5824 5820 5816 5812 5807 5803 5799 5795 5792 5788 5785 5782 5779 5775 5772 5770 5768 5767 5765 5764 5763 5762 5760 5759 5757 5756 5755 5754 5753 5753 5753 5752 5753 5753 5753 5753 5753 5752 5751 5750 5749
5826 5824 5822 5818 5814 5809 5805 5801 5797 5793 5790 5786 5783 5780 5776 5773 5770 5767 5766 5764 5763 5763 5761 5760 5759 5757 5755 5754 5753 5752 5751 5751 5750 5751 5751 5752 5752 5752 5752 5751 5750 5749 5749
5829 5824 5821 5817 5813 5807 5803 5799 5795 5791 5788 5784 5781 5777 5773 5770 5767 5765 5764 5763 5762 5761 5760 5759 5757 5755 5753 5751 5750 5749 5749 5749 5748 5749 5750 5751 5751 5752 5752 5750 5750 5749 5748
5827 5824 5820 5816 5810 5805 5801 5798 5794 5790 5786 5783 5779 5775 5771 5767 5765 5764 5763 5762 5761 5760 5758 5756 5754 5753 5751 5750 5748 5747 5746 5746 5746 5747 5747 5748 5749 5751 5751 5749 5749 5748 5747
5826 5823 5819 5814 5809 5804 5800 5796 5793 5789 5785 5782 5778 5773 5770 5767 5764 5762 5760 5759 5759 5758 5756 5754 5752 5750 5749 5747 5746 5745 5744 5744 5744 5744 5745 5746 5747 5748 5748 5747 5746 5745 5745
5823 5820 5817 5812 5808 5802 5798 5794 5792 5788 5784 5780 5777 5773 5769 5766 5763 5760 5757 5756 5755 5754 5753 5751 5749 5747 5746 5745 5743 5743 5742 5742 5741 5741 5742 5743 5744 5745 5744 5743 5743 5742 5742
5815 5811 5806 5803 5799 5795 5793 5791 5788 5785 5782 5778 5775 5771 5767 5764 5760 5757 5753 5751 5750 5749 5748 5747 5746 5744 5743 5742 5740 5740 5740 5740 5739 5740 5740 5740 5740 5741 5740 5739 5739 5739 5740
5807 5801 5798 5793 5789 5786 5785 5783 5780 5779 5777 5773 5768 5765 5762 5759 5757 5753 5750 5746 5746 5745 5744 5743 5741 5739 5738 5738 5737 5737 5738 5738 5738 5738 5737 5737 5738 5737 5737 5737 5736 5736 5737
5795 5788 5784 5781 5780 5777 5776 5773 5771 5770 5768 5765 5762 5759 5756 5754 5752 5749 5746 5743 5742 5741 5740 5739 5737 5736 5734 5734 5734 5735 5736 5736 5736 5736 5735 5735 5735 5735 5735 5735 5734 5734 5734
5784 5778 5771 5768 5766 5767 5764 5761 5760 5760 5759 5757 5755 5754 5751 5749 5746 5744 5741 5740 5738 5736 5735 5734 5733 5733 5732 5731 5732 5733 5733 5734 5734 5734 5733 5734 5733 5732 5732 5732 5731 5731 5731
5773 5765 5762 5758 5756 5755 5750 5748 5747 5746 5747 5747 5748 5749 5747 5744 5742 5739 5737 5735 5734 5731 5731 5731 5730 5729 5728 5729 5727 5726 5729 5732 5733 5733 5732 5731 5730 5730 5729 5729 5728 5728 5728
5761 5756 5753 5749 5749 5747 5744 5742 5741 5738 5739 5739 5741 5741 5740 5739 5737 5735 5732 5730 5729 5727 5726 5726 5726 5723 5723 5725 5721 5717 5716 5719 5726 5731 5729 5727 5726 5726 5725 5725 5725 5724 5724
5751 5748 5746 5741 5740 5740 5738 5736 5735 5733 5732 5729 5729 5732 5734 5733 5732 5731 5728 5726 5725 5724 5722 5722 5722 5719 5716 5718 5719 5714 5709 5707 5712 5719 5723 5723 5722 5721 5721 5722 5721 5721 5721
5741 5739 5735 5732 5730 5729 5730 5728 5727 5723 5720 5719 5722 5723 5725 5725 5725 5724 5724 5722 5720 5720 5718 5718 5718 5717 5714 5712 5713 5714 5713 5710 5706 5706 5712 5716 5717 5717 5717 5717 5717 5718 5718
5732 5729 5726 5723 5721 5720 5720 5718 5717 5714 5713 5713 5715 5715 5715 5716 5716 5716 5717 5716 5715 5714 5714 5713 5713 5713 5712 5709 5708 5708 5708 5707 5706 5702 5701 5705 5708 5711 5712 5713 5713 5714 5714
5722 5718 5715 5712 5710 5709 5708 5706 5704 5702 5702 5702 5702 5702 5702 5703 5704 5705 5707 5707 5708 5707 5707 5707 5708 5708 5707 5707 5706 5705 5703 5701 5700 5699 5698 5699 5700 5704 5707 5709 5709 5710 5711